Location: Bogotá
(4.6533°N, 74.0837°W)
Time: 05:35:40
(UTC+00:00)

ISS - Pass Details

Date: 09 September 2024
Orbit: 414 x 424 km, 51.6° (Epoch: 16 September)

Event Time Altitude Azimuth Distance (km) Brightness Sun altitude
Rises 09:07:55 0° 17° (NNE) 2,322 0.3 -25.7°
Enters shadow 10:12:17 -65° 316° (NW) 11,986 3.5 -9.8°
Maximum altitude 10:47:28 61° 235° (SW) 465 -3.7 -1.1°
